Temperature
24 24 23 23 25 26 27 28 28 28 28 27 27 26 25 25 23 22 21 20 20 19 19 19 19 19 19 18 18 18 18 18 18 18 18 18 18 18 18 18 18 18 18 18 18 18 18 18 18
24 23 23 25 26 27 27 28 28 28 28 27 27 26 25 24 23 21 21 20 20 19 19 19 19 19 19 19 18 18 18 18 18 18 18 18 18 18 18 18 18 18 18 18 18 18 18 18 18
24 24 26 27 28 28 27 28 28 28 28 27 26 25 25 23 22 21 21 20 20 19 19 19 19 19 19 18 18 18 18 18 18 18 18 18 18 18 18 18 18 18 18 18 18 18 18 18 18
24 26 28 28 28 29 29 29 29 29 28 27 26 25 24 23 22 21 21 21 20 19 19 19 19 19 19 19 18 19 18 18 18 18 18 18 18 18 18 18 18 18 18 18 18 18 18 18 18
25 27 28 29 29 30 30 30 29 29 28 27 26 25 23 22 22 22 21 21 20 19 19 19 19 19 19 19 19 19 19 18 18 18 18 18 18 18 18 18 18 18 18 18 18 18 18 18 18
28 29 29 28 29 30 30 30 29 29 28 27 26 25 23 22 22 22 22 21 21 20 19 20 19 19 19 19 19 19 19 19 18 18 18 18 18 18 18 18 18 18 18 18 18 18 18 18 18
29 29 29 29 29 30 30 30 30 29 28 28 26 25 23 23 22 22 22 21 21 20 19 19 19 19 19 19 19 19 19 19 19 18 18 18 18 18 18 18 18 18 18 18 18 18 18 18 19
31 30 30 30 29 29 30 30 29 29 28 27 27 26 24 23 23 22 22 22 21 21 20 19 19 19 19 19 19 19 19 19 19 19 19 19 18 18 18 18 18 18 18 19 19 18 18 19 19
32 31 30 30 30 30 31 30 29 28 28 27 26 25 24 23 23 23 22 22 21 21 21 20 20 19 19 19 19 19 19 19 19 19 18 18 18 18 18 18 18 19 19 19 19 19 19 19 19
33 30 31 32 32 31 30 30 30 29 28 27 26 25 24 23 23 23 22 22 21 21 21 21 20 20 19 19 19 19 19 19 19 18 18 18 18 18 18 18 18 19 19 19 18 18 18 19 18
33 32 32 32 32 31 31 31 30 29 28 27 25 25 24 24 23 23 22 22 21 21 21 21 20 20 20 19 19 19 19 19 19 18 18 19 18 18 18 18 18 18 18 18 18 18 18 18 18
34 33 33 33 32 32 31 31 30 29 28 27 25 25 24 24 23 23 22 22 21 21 21 20 20 20 20 20 19 19 19 19 19 19 19 19 19 18 18 18 18 18 18 18 18 18 18 18 18
34 33 33 33 32 32 31 30 30 29 28 27 26 25 24 24 24 23 22 22 21 21 21 20 20 19 19 19 19 19 19 19 19 19 19 19 19 19 19 19 19 19 19 18 18 18 18 18 18
34 34 33 33 32 32 31 30 29 29 28 27 26 25 25 24 24 23 22 22 21 21 20 20 20 19 19 19 19 19 19 19 19 19 19 19 19 19 19 19 19 19 19 19 18 18 18 18 18
33 33 33 33 33 32 31 30 29 28 28 27 26 25 25 24 24 23 22 22 21 21 20 20 20 19 19 19 19 19 19 19 19 19 19 19 19 19 19 19 19 19 19 19 18 18 18 18 18
32 31 31 32 33 32 31 29 30 29 28 27 27 26 25 24 24 23 22 22 21 21 20 20 20 19 19 19 19 19 19 19 19 19 19 19 19 19 19 19 19 19 19 19 19 18 18 18 18
30 30 30 32 33 33 32 30 30 29 29 28 27 27 26 25 24 23 23 22 21 20 20 20 20 19 19 19 19 19 19 19 19 19 19 19 19 19 19 19 19 19 19 19 18 18 18 18 18
30 30 31 32 33 33 31 31 31 30 30 29 28 27 26 25 24 24 23 22 21 20 20 20 19 19 19 19 19 19 19 19 19 19 19 19 19 19 19 19 19 19 19 19 19 19 18 18 18
32 32 32 33 33 33 32 31 31 31 30 29 28 28 27 26 25 24 23 22 21 20 20 20 19 19 19 19 19 19 19 19 19 19 19 19 19 19 19 19 19 19 19 19 19 18 18 18 18
33 32 32 33 34 33 31 31 32 32 31 30 29 28 27 26 25 24 23 22 21 21 20 20 20 19 19 19 19 19 19 19 19 19 19 19 19 19 19 19 19 19 19 19 18 18 18 18 18
33 33 32 32 33 33 31 30 30 32 31 31 30 29 28 27 26 24 24 23 22 21 20 20 20 19 19 19 19 19 19 19 19 19 19 19 19 19 19 19 19 19 18 18 18 18 18 18 18
33 34 33 33 32 31 31 29 29 31 31 31 30 29 29 27 26 25 24 23 22 21 21 20 20 20 20 19 19 19 19 19 19 19 19 19 19 18 18 19 19 19 18 18 18 18 18 18 18
33 34 34 33 33 32 31 30 29 31 30 31 31 30 29 28 27 26 25 24 23 22 21 20 20 20 20 19 19 19 19 19 19 19 19 19 19 18 18 18 18 18 18 19 18 18 18 18 18
34 34 33 33 33 30 31 31 29 30 31 31 31 31 30 29 27 26 25 24 23 22 22 21 20 20 20 20 19 19 19 19 19 19 19 19 19 18 18 18 18 18 18 18 18 18 18 18 18
34 32 30 30 30 30 32 32 31 32 33 32 32 31 30 29 28 27 25 24 23 23 22 21 20 20 20 20 19 19 20 19 19 19 19 19 19 19 19 18 18 18 18 18 18 18 18 18 18
33 32 29 29 29 30 32 32 33 34 34 33 32 31 30 29 28 27 26 25 24 23 22 21 20 20 20 20 20 20 20 19 19 19 19 19 19 19 19 18 18 18 18 18 18 18 18 18 18
33 32 32 31 31 31 31 32 33 34 34 33 32 31 30 30 29 28 26 25 24 23 22 21 21 20 20 20 20 20 20 19 19 19 19 19 19 18 18 18 18 18 18 18 18 18 18 18 17
34 34 32 31 30 30 30 31 31 32 32 33 32 32 31 30 29 28 27 26 25 24 23 22 21 20 20 20 20 20 20 20 19 19 19 19 19 19 18 18 18 18 18 18 18 17 17 17 17
33 33 32 32 32 30 29 30 33 32 32 33 33 32 31 30 29 28 27 26 25 24 23 22 21 20 20 20 20 20 20 19 19 19 19 19 19 19 18 18 18 18 17 18 17 17 17 17 17
34 33 33 31 30 30 30 30 33 33 33 33 33 32 31 30 29 28 27 26 25 24 23 22 21 21 20 20 20 20 20 19 19 19 19 19 19 18 18 18 18 18 17 17 17 17 17 17 17
Wind_Speed
10 10 9 5 3 1 12 13 14 14 14 14 13 12 16 14 10 9 7 8 10 11 10 12 13 13 14 14 14 15 15 15 15 15 15 16 16 16 16 15 15 15 14 13 13 13 14 14 13
10 11 7 3 0 7 13 12 13 14 12 12 14 15 16 16 14 10 9 8 11 11 11 12 13 14 14 14 14 14 14 14 14 14 14 15 15 15 15 15 14 13 13 12 12 13 13 13 12
11 12 5 1 5 11 12 11 12 12 11 12 14 15 13 12 13 10 10 10 12 12 13 13 13 13 14 14 14 14 14 14 14 14 14 14 15 15 14 14 14 13 12 12 12 13 13 13 11
6 5 2 3 12 14 12 11 11 11 12 12 12 11 13 13 12 12 11 11 12 12 13 14 14 14 14 13 13 13 13 13 13 14 14 14 14 14 14 14 13 13 12 12 12 13 13 12 10
8 3 2 8 13 14 12 12 12 11 12 15 16 16 15 14 13 13 12 11 12 13 14 14 15 14 13 13 13 12 12 12 13 13 13 13 13 14 13 13 13 13 12 12 12 12 11 10 8
5 2 3 9 14 13 12 12 13 13 13 15 16 16 13 13 12 11 12 11 12 14 14 14 14 14 13 12 12 12 12 12 12 12 12 12 13 13 13 12 13 13 12 11 11 11 10 9 7
4 2 6 11 12 12 12 12 13 12 12 13 15 15 12 12 11 12 11 10 11 13 13 12 13 13 12 12 12 11 11 11 11 10 11 12 13 13 12 12 12 12 12 11 10 10 9 8 6
3 2 7 10 12 12 12 12 13 13 13 11 11 11 12 12 11 12 11 11 11 11 11 11 12 12 11 11 11 11 11 10 10 9 10 11 12 12 12 12 11 11 11 10 9 9 7 6 5
2 4 8 10 11 11 11 12 13 14 13 14 15 16 15 13 12 12 11 10 9 9 8 8 11 10 9 11 12 11 10 10 9 9 9 8 8 10 11 12 12 10 10 9 8 8 7 5 5
3 7 10 10 11 12 11 11 12 13 14 16 17 17 15 13 11 10 10 10 9 8 8 7 8 7 7 8 9 8 8 8 6 6 7 7 6 6 9 12 12 10 9 8 8 8 7 6 5
7 10 11 11 12 12 11 10 11 13 13 14 15 15 13 12 10 9 10 10 9 7 7 8 8 6 6 5 5 4 5 7 6 5 6 6 6 6 8 7 8 8 8 6 8 8 7 7 5
8 9 10 11 10 11 10 12 13 14 14 15 15 14 12 11 10 9 9 10 9 7 7 7 8 6 5 5 4 4 3 4 4 5 4 4 3 3 4 3 4 5 5 4 5 4 4 3 2
7 8 9 9 10 12 12 12 14 15 15 16 15 13 12 11 11 10 9 9 8 8 8 7 7 6 5 4 3 3 4 4 5 5 4 4 3 3 3 2 2 2 3 4 2 3 2 2 1
5 7 8 9 10 11 12 10 11 14 14 15 14 12 11 10 11 10 9 8 8 8 7 7 7 6 5 3 2 2 4 4 4 4 4 4 3 3 2 2 2 1 1 2 2 2 2 2 2
4 5 6 7 8 9 11 9 9 12 14 13 12 11 11 10 10 9 9 8 8 8 7 6 7 6 4 3 1 2 3 4 4 4 4 3 3 2 1 1 2 1 2 3 3 2 2 2 2
2 2 3 6 7 8 7 8 11 12 13 13 12 12 11 9 10 9 9 8 8 8 7 4 6 8 5 3 1 2 3 4 3 4 4 3 2 1 1 1 1 1 2 2 2 1 1 1 1
3 5 6 6 6 7 6 9 12 13 13 12 12 12 12 11 9 9 10 9 8 7 7 5 5 6 5 3 1 1 2 2 2 3 2 3 2 1 1 2 1 1 1 1 1 2 2 1 1
5 6 6 5 6 5 5 9 13 14 13 13 12 12 12 12 11 10 10 10 8 8 7 6 5 5 4 3 1 1 1 2 2 2 2 3 1 1 2 2 1 1 1 1 1 1 1 1 1
8 8 5 4 6 3 5 8 12 14 13 13 13 13 12 12 13 12 11 10 10 8 7 6 5 5 3 2 1 1 1 1 1 2 2 2 1 2 2 2 1 0 1 1 1 1 1 1 2
10 9 5 3 6 4 3 4 9 12 13 13 13 13 13 13 13 12 11 11 10 9 8 7 6 6 4 3 2 1 1 1 2 2 2 1 1 2 1 2 1 1 1 1 1 1 0 1 2
10 8 5 5 6 5 3 4 7 11 11 13 13 14 14 15 15 14 13 12 11 10 9 7 6 6 4 4 2 1 1 0 1 2 2 1 1 2 2 2 2 1 1 1 0 1 0 1 1
9 7 7 8 7 5 7 4 6 11 12 13 13 14 15 15 15 15 14 13 12 12 10 8 7 6 4 3 2 2 2 1 1 2 2 2 2 2 2 2 2 2 2 1 1 2 1 1 1
9 8 9 10 10 7 7 4 6 9 11 13 14 14 16 16 16 15 15 13 13 13 12 10 8 6 5 4 3 2 1 2 2 2 3 2 2 1 1 1 1 2 2 2 2 2 2 1 1
10 10 10 11 10 9 9 6 6 9 13 14 15 15 15 16 16 15 15 14 13 12 12 11 9 7 6 5 3 2 1 1 2 2 2 2 2 1 2 2 2 2 2 1 2 2 2 2 2
12 9 8 7 7 8 8 6 5 10 12 14 15 15 15 15 15 15 15 15 13 13 12 12 10 8 7 5 4 3 3 2 1 0 1 1 1 2 2 2 2 2 1 1 2 1 2 2 3
14 13 10 8 8 7 8 5 5 8 10 12 14 15 14 15 14 15 15 14 14 14 12 12 11 9 8 6 4 4 3 3 2 1 0 1 1 2 3 2 2 2 1 2 2 1 2 3 3
15 13 13 11 12 9 6 4 5 8 11 12 13 16 15 15 15 15 15 15 14 13 12 13 11 9 8 7 6 4 3 1 1 2 0 1 1 2 3 3 2 2 2 2 2 2 2 2 2
15 13 9 10 9 9 6 6 6 10 12 12 13 14 15 15 15 15 14 13 13 13 12 12 12 10 9 8 7 6 4 3 2 1 2 2 2 3 3 2 2 2 2 2 1 1 2 2 2
15 15 11 9 10 8 7 3 5 9 12 12 14 14 14 15 15 15 14 14 13 13 13 12 12 11 9 8 6 5 5 5 3 2 2 2 2 2 2 2 2 2 2 2 1 1 2 1 2
16 15 14 10 8 7 7 3 4 8 11 12 12 14 14 13 14 14 14 14 13 13 13 12 12 11 10 8 7 6 5 5 4 3 3 3 2 2 2 2 1 1 2 1 1 1 1 1 2
Wind_Direction
192 207 213 233 257 83 65 61 63 66 64 59 59 63 58 56 65 88 97 87 92 90 90 82 75 79 83 84 85 88 90 90 93 95 97 99 103 105 108 110 113 115 115 114 117 120 119 115 115
214 216 222 239 221 71 67 65 66 69 73 76 71 71 69 68 79 96 95 91 94 94 92 88 85 84 85 85 88 90 93 93 95 97 99 103 104 106 108 111 112 114 114 114 116 120 121 119 119
244 250 255 232 62 69 71 74 79 80 78 81 77 64 64 79 85 97 101 100 92 92 94 95 93 90 90 89 90 93 94 96 100 103 104 104 104 105 109 109 109 109 108 112 115 119 123 122 124
246 247 240 64 71 73 77 81 83 86 84 82 84 78 72 81 95 106 110 103 100 101 99 98 97 96 96 93 91 94 96 98 102 105 106 107 108 109 110 111 110 106 105 106 107 113 118 121 125
242 273 85 76 74 75 74 79 83 81 83 83 85 90 86 89 99 108 109 105 106 103 104 104 101 98 96 95 95 94 96 99 103 104 108 110 112 113 113 114 113 111 108 106 108 112 117 121 126
266 242 84 80 77 75 77 82 84 83 87 93 95 96 95 105 106 108 107 106 106 105 105 109 107 104 101 99 99 98 99 102 104 108 113 116 118 117 117 116 116 115 113 112 113 118 121 122 126
251 57 83 85 84 78 74 79 85 86 84 90 101 100 107 110 110 108 105 103 103 106 110 116 117 113 110 107 105 104 106 110 111 115 121 125 126 125 125 123 120 120 120 120 122 126 127 132 140
245 81 81 85 89 86 85 83 86 87 80 85 100 103 112 113 114 109 108 103 100 102 110 119 120 120 125 121 119 118 117 118 120 121 125 130 136 136 133 130 126 126 128 130 133 133 136 145 163
347 74 75 87 94 94 93 92 92 90 90 81 81 98 113 119 117 114 107 98 93 97 101 110 115 124 128 124 126 134 131 130 130 135 139 143 151 146 145 131 134 135 139 143 146 148 156 171 197
79 86 81 86 95 98 94 95 103 103 95 92 93 101 112 117 117 113 111 108 100 98 102 100 100 109 114 113 132 147 139 140 151 138 144 155 151 143 136 138 144 148 152 157 166 172 182 202 210
85 89 94 95 100 107 105 101 100 103 102 105 111 116 120 120 119 113 107 104 103 104 93 96 89 83 84 94 123 125 131 136 141 137 142 141 136 138 131 142 152 164 171 182 178 189 202 205 204
91 91 95 98 103 106 100 96 93 92 102 112 117 122 124 125 120 112 106 108 112 106 96 88 93 80 59 64 84 108 108 117 117 123 114 110 93 87 106 132 154 169 174 176 174 184 195 201 183
100 104 101 104 104 99 98 92 97 99 109 117 121 124 129 128 122 114 112 110 113 110 104 96 90 86 80 57 27 88 95 97 108 107 96 101 105 106 109 103 114 132 160 165 172 150 128 89 70
136 124 121 118 114 111 105 104 105 113 120 123 127 130 129 123 120 119 117 114 115 115 110 108 109 102 96 99 53 55 88 102 102 103 96 102 101 96 111 135 114 120 160 142 141 127 133 138 124
125 116 120 140 139 127 120 115 119 129 133 134 137 139 134 130 127 126 125 126 122 119 119 124 126 113 104 99 76 84 98 109 103 108 103 100 110 121 127 154 158 175 170 159 151 165 150 152 155
131 164 181 174 157 146 145 129 141 146 144 144 147 146 144 138 138 134 130 128 123 124 119 125 122 123 122 106 37 40 66 93 97 112 117 115 124 136 162 127 130 188 180 161 139 141 121 137 141
196 208 206 186 164 149 153 141 147 156 153 153 156 154 152 151 149 142 141 139 131 128 127 121 100 116 122 121 123 106 89 83 94 106 120 125 119 119 121 87 57 270 128 93 133 127 144 149 143
210 206 211 185 158 163 151 145 156 166 163 162 164 161 159 159 158 151 147 141 136 133 134 133 126 115 120 118 104 79 86 101 98 94 104 106 98 74 47 99 52 3 68 57 68 91 134 165 163
223 235 225 157 141 176 172 164 165 170 171 167 168 166 165 163 158 155 154 149 145 141 143 143 138 129 131 125 129 114 118 111 112 121 104 94 65 67 71 44 107 93 97 80 85 102 205 176 142
224 230 232 167 163 186 204 188 168 171 178 173 170 168 167 162 158 158 159 157 152 148 149 149 151 147 150 143 157 172 159 171 132 89 94 96 59 33 60 62 54 69 113 94 36 91 287 229 167
230 231 227 231 212 204 206 215 196 181 178 175 173 172 170 168 166 165 168 164 160 158 162 163 153 143 152 161 172 155 127 285 104 113 118 113 100 87 39 38 31 17 90 94 89 79 324 274 225
238 231 234 242 237 223 218 218 211 195 184 180 179 176 175 172 169 170 173 169 166 164 163 152 148 148 156 174 182 182 166 159 158 139 127 122 87 73 63 51 44 19 55 68 2 74 334 305 292
243 240 244 250 254 249 232 234 207 195 189 186 182 181 178 173 170 171 173 168 169 168 163 156 152 155 159 181 184 201 180 168 140 121 117 129 126 130 81 63 55 48 57 57 27 31 19 5 2
236 242 252 252 256 257 239 231 201 190 196 190 181 180 178 174 172 171 169 164 169 167 164 159 155 160 166 179 175 170 159 94 94 121 149 192 155 118 78 71 45 58 57 45 40 350 39 27 4
224 233 246 250 248 251 249 235 186 182 189 183 179 175 175 173 171 167 165 166 168 169 166 157 156 162 168 172 166 159 153 162 162 193 178 236 129 111 82 62 61 51 35 40 37 15 31 23 2
224 227 233 244 241 244 248 233 175 163 164 167 168 166 170 170 167 166 167 168 172 172 164 157 158 165 169 167 165 161 171 189 172 193 348 37 40 91 109 97 105 86 35 30 38 8 43 44 7
228 229 237 250 256 254 231 204 176 160 154 158 162 163 169 172 169 168 168 171 172 170 164 159 159 165 167 167 162 158 164 178 120 126 131 55 54 114 105 107 101 91 75 39 28 56 46 44 24
235 237 240 246 258 260 238 214 196 171 166 166 164 162 166 172 170 165 165 165 168 168 161 158 160 164 166 168 174 168 167 168 152 129 105 79 57 58 83 102 106 101 95 82 38 62 72 48 33
221 230 239 251 258 259 255 234 175 182 171 170 166 164 168 170 166 164 165 164 162 163 162 160 161 165 171 169 166 157 164 168 170 168 137 121 107 100 93 96 95 104 103 101 71 16 100 71 44
226 228 229 236 248 257 268 255 197 175 165 163 166 163 163 163 163 161 162 160 162 163 163 163 165 170 172 166 162 164 163 167 177 173 157 149 146 141 130 131 128 145 122 118 117 331 65 77 62
Height
1473 1473 1474 1477 1476 1476 1475 1471 1468 1470 1473 1475 1476 1477 1481 1483 1489 1501 1501 1499 1499 1497 1496 1495 1494 1494 1495 1495 1495 1496 1497 1498 1499 1500 1501 1503 1504 1506 1507 1509 1511 1513 1514 1516 1518 1519 1521 1524 1527
1473 1474 1477 1476 1477 1482 1481 1473 1473 1474 1476 1478 1479 1482 1485 1489 1493 1498 1501 1502 1501 1500 1499 1498 1498 1498 1498 1498 1499 1499 1500 1501 1502 1503 1504 1506 1507 1508 1510 1512 1513 1515 1516 1516 1517 1518 1521 1525 1528
1473 1476 1476 1472 1472 1479 1480 1473 1474 1475 1477 1479 1482 1486 1490 1494 1498 1500 1503 1503 1503 1502 1502 1501 1500 1500 1501 1501 1502 1502 1503 1504 1505 1506 1507 1508 1510 1511 1513 1514 1515 1516 1517 1518 1518 1519 1522 1526 1530
1475 1475 1474 1472 1474 1471 1472 1472 1473 1476 1478 1481 1484 1490 1496 1498 1501 1502 1504 1504 1505 1505 1504 1504 1503 1503 1503 1504 1505 1505 1506 1506 1507 1508 1510 1511 1512 1513 1515 1516 1518 1519 1520 1520 1520 1521 1524 1528 1531
1477 1475 1474 1475 1473 1470 1469 1471 1474 1477 1479 1483 1488 1494 1499 1502 1503 1505 1506 1506 1507 1507 1507 1507 1507 1506 1507 1507 1507 1508 1508 1509 1510 1511 1512 1513 1515 1516 1517 1519 1521 1522 1523 1524 1525 1526 1528 1531 1533
1475 1470 1477 1481 1476 1472 1472 1473 1476 1479 1482 1486 1491 1496 1503 1505 1506 1508 1508 1509 1510 1510 1510 1509 1510 1510 1510 1510 1510 1511 1511 1511 1512 1513 1514 1515 1517 1518 1520 1522 1523 1524 1526 1527 1528 1530 1532 1534 1536
1472 1470 1475 1477 1478 1476 1475 1476 1478 1482 1484 1487 1491 1497 1504 1507 1508 1510 1511 1511 1513 1513 1512 1512 1512 1513 1513 1513 1513 1513 1514 1514 1514 1514 1515 1516 1518 1520 1523 1524 1526 1527 1529 1530 1531 1532 1534 1536 1537
1466 1468 1472 1475 1479 1480 1477 1479 1481 1484 1488 1491 1492 1498 1504 1509 1510 1511 1513 1514 1515 1516 1516 1516 1516 1516 1516 1516 1516 1516 1516 1516 1516 1516 1517 1518 1520 1522 1525 1527 1528 1530 1531 1532 1534 1535 1536 1537 1539
1464 1471 1477 1476 1477 1479 1478 1480 1484 1488 1491 1493 1495 1500 1506 1510 1511 1513 1514 1516 1517 1518 1519 1519 1519 1519 1520 1519 1520 1519 1519 1520 1519 1519 1519 1520 1522 1525 1528 1530 1531 1532 1533 1535 1536 1537 1538 1539 1540
1464 1473 1475 1471 1473 1477 1480 1481 1484 1488 1492 1497 1501 1505 1508 1511 1513 1514 1516 1517 1519 1520 1521 1521 1522 1522 1523 1523 1522 1522 1523 1523 1523 1522 1522 1523 1525 1528 1531 1532 1533 1534 1535 1536 1537 1538 1539 1540 1541
1464 1469 1469 1471 1474 1477 1480 1482 1485 1488 1494 1499 1504 1507 1510 1512 1514 1515 1517 1519 1521 1522 1523 1523 1524 1524 1525 1525 1525 1526 1526 1526 1526 1526 1526 1527 1529 1531 1532 1534 1535 1536 1537 1537 1538 1539 1540 1541 1542
1465 1467 1468 1472 1475 1477 1480 1483 1487 1490 1497 1501 1505 1509 1511 1514 1516 1517 1519 1520 1522 1523 1524 1525 1525 1525 1526 1527 1527 1528 1528 1528 1528 1529 1530 1530 1531 1532 1534 1535 1536 1537 1538 1539 1540 1541 1541 1542 1543
1467 1468 1470 1473 1476 1478 1482 1486 1490 1495 1499 1503 1507 1510 1513 1515 1517 1519 1521 1522 1523 1524 1525 1526 1526 1527 1527 1528 1529 1530 1530 1531 1531 1531 1532 1533 1533 1534 1536 1537 1538 1539 1539 1540 1541 1542 1542 1543 1543
1468 1469 1471 1473 1476 1479 1484 1489 1492 1498 1501 1505 1508 1511 1514 1516 1518 1520 1522 1523 1525 1525 1526 1527 1528 1528 1529 1530 1530 1531 1532 1533 1533 1534 1534 1535 1535 1536 1537 1538 1539 1539 1540 1541 1541 1542 1542 1543 1543
1468 1471 1473 1474 1475 1479 1484 1490 1493 1498 1502 1505 1509 1512 1514 1517 1519 1521 1523 1524 1525 1526 1527 1528 1529 1529 1530 1531 1532 1533 1534 1534 1535 1535 1535 1536 1536 1537 1538 1539 1539 1540 1541 1541 1542 1542 1542 1543 1543
1471 1480 1484 1475 1473 1477 1485 1497 1493 1497 1501 1504 1508 1511 1514 1517 1519 1521 1523 1525 1526 1527 1528 1529 1530 1530 1531 1532 1533 1534 1535 1535 1536 1536 1537 1537 1537 1538 1539 1539 1540 1541 1541 1541 1541 1541 1542 1542 1543
1481 1489 1485 1476 1470 1474 1481 1491 1490 1494 1498 1502 1506 1509 1513 1517 1519 1521 1523 1525 1526 1527 1528 1530 1531 1531 1532 1533 1534 1535 1536 1537 1537 1538 1538 1538 1538 1539 1539 1539 1540 1540 1541 1541 1541 1541 1541 1541 1542
1486 1485 1480 1476 1470 1472 1480 1484 1487 1490 1494 1498 1503 1507 1511 1515 1518 1521 1523 1524 1526 1527 1528 1530 1531 1532 1533 1534 1535 1536 1537 1538 1538 1538 1539 1539 1539 1540 1540 1540 1539 1540 1540 1540 1540 1540 1541 1541 1541
1473 1476 1476 1471 1466 1472 1478 1481 1482 1486 1490 1495 1499 1504 1509 1513 1516 1520 1522 1524 1526 1527 1528 1530 1531 1532 1533 1534 1535 1536 1537 1538 1539 1539 1539 1540 1540 1540 1540 1540 1540 1540 1540 1540 1539 1539 1539 1540 1540
1465 1472 1472 1468 1465 1472 1478 1479 1478 1482 1486 1490 1495 1500 1505 1510 1515 1518 1521 1523 1525 1526 1528 1530 1531 1532 1533 1534 1535 1536 1538 1538 1539 1540 1539 1540 1540 1540 1541 1540 1540 1539 1539 1539 1539 1539 1539 1539 1540
1464 1468 1471 1471 1467 1468 1478 1487 1482 1479 1483 1487 1492 1497 1502 1507 1511 1516 1519 1522 1524 1526 1527 1529 1531 1532 1533 1534 1535 1537 1538 1539 1539 1539 1539 1540 1540 1540 1540 1540 1539 1539 1539 1539 1539 1538 1538 1539 1539
1468 1459 1462 1465 1472 1481 1480 1499 1487 1479 1480 1484 1488 1493 1498 1503 1508 1513 1516 1520 1522 1525 1527 1529 1530 1531 1533 1534 1535 1537 1537 1538 1539 1539 1539 1539 1540 1540 1540 1539 1539 1539 1539 1539 1538 1538 1538 1538 1539
1460 1456 1459 1462 1467 1475 1476 1489 1489 1477 1481 1480 1484 1489 1494 1499 1505 1509 1513 1517 1521 1523 1526 1527 1529 1530 1532 1533 1535 1536 1537 1538 1538 1539 1539 1539 1539 1539 1539 1539 1539 1538 1538 1538 1538 1537 1537 1537 1537
1454 1458 1461 1462 1468 1488 1477 1485 1490 1477 1476 1475 1479 1484 1490 1496 1501 1507 1511 1515 1519 1522 1524 1526 1527 1529 1531 1532 1534 1535 1536 1537 1538 1538 1539 1539 1539 1539 1539 1538 1538 1538 1537 1537 1537 1537 1537 1537 1537
1455 1470 1487 1492 1494 1491 1467 1473 1475 1463 1462 1468 1473 1480 1487 1493 1498 1504 1509 1513 1516 1520 1523 1524 1526 1528 1530 1531 1533 1534 1535 1536 1537 1538 1538 1539 1539 1538 1538 1538 1537 1537 1537 1537 1537 1537 1537 1537 1536
1456 1465 1491 1504 1500 1487 1470 1473 1463 1453 1458 1464 1470 1477 1484 1490 1495 1501 1505 1510 1514 1517 1520 1523 1524 1526 1528 1530 1532 1533 1535 1536 1537 1537 1538 1538 1538 1538 1537 1537 1537 1537 1537 1537 1537 1536 1536 1536 1536
1456 1460 1459 1473 1477 1484 1476 1466 1459 1452 1457 1462 1468 1475 1481 1487 1493 1498 1503 1507 1511 1515 1518 1520 1522 1525 1527 1529 1531 1532 1533 1535 1536 1536 1537 1537 1537 1538 1537 1537 1537 1537 1537 1537 1536 1536 1536 1536 1535
1446 1450 1460 1472 1488 1493 1482 1476 1471 1460 1460 1461 1466 1471 1478 1484 1490 1495 1500 1505 1509 1513 1516 1519 1521 1523 1526 1528 1530 1531 1532 1533 1535 1535 1536 1536 1536 1537 1537 1537 1537 1536 1536 1536 1536 1536 1536 1535 1535
1449 1453 1456 1461 1464 1485 1493 1481 1455 1454 1456 1459 1464 1470 1476 1481 1487 1493 1498 1503 1507 1511 1514 1517 1520 1522 1525 1527 1528 1530 1531 1533 1534 1534 1535 1535 1535 1536 1536 1536 1536 1536 1536 1536 1535 1535 1535 1535 1534
1440 1446 1452 1470 1473 1472 1481 1479 1449 1451 1452 1457 1462 1468 1474 1479 1485 1490 1496 1501 1505 1509 1512 1515 1518 1521 1523 1525 1527 1529 1530 1532 1533 1533 1534 1534 1534 1535 1535 1535 1535 1535 1535 1535 1535 1535 1534 1534 1534